Date String (YYYY-MM-DD hh:mm:ss) UTC,Instrument flags,Ambient pressure (hPa),Sample flow (lpm),Bypass flow (lpm),Sample temperature (°C),Ambient temperature (°C),ASC tube jacket temperature (°C),LED temperature (°C),Box temperature (°C),Sample RH (%),Span deviation,Mass concentration (μg/m³),Mass concentration (μg/m³),Mass concentration (μg/m³)
DateTimeUTC,F1_M11,P_M11,Q1_M11,Q2_M11,T1_M11,T2_M11,T3_M11,T4_M11,T5_M11,U1_M11,ZSPAN_M11,X0_M11,X2_M11,X1_M11
2023-01-23 03:00:00,,0821.6,5.00,0.00,24.3,22.8,00.0,33.1,26.1,09.8,0000.2,0019.23,0007.69,0006.69
2023-01-23 03:01:00,,0821.5,5.01,0.00,24.3,22.8,00.0,33.1,26.1,09.8,0000.0,0019.60,0007.71,0006.70
2023-01-23 03:02:00,,0821.6,5.01,0.00,24.3,22.8,00.0,33.1,26.1,09.8,0000.4,0019.88,0007.76,0006.71
2023-01-23 03:03:00,,0821.6,4.99,0.00,24.3,22.8,00.0,33.1,26.1,09.8,0000.3,0019.78,0007.76,0006.71
2023-01-23 03:04:00,,0821.6,4.99,0.00,24.3,22.8,00.0,33.1,26.1,09.8,0001.2,0020.58,0007.77,0006.71
2023-01-23 03:05:00,,0821.6,4.99,0.00,24.3,22.8,00.0,33.1,26.1,09.8,0001.3,0020.85,0007.79,0006.72
2023-01-23 03:06:00,,0821.7,5.00,0.00,24.3,22.8,00.0,33.1,26.1,09.9,0001.4,0020.45,0007.76,0006.72
2023-01-23 03:07:00,,0821.7,4.99,0.00,24.2,22.8,00.0,33.1,26.1,10.0,0001.5,0020.49,0007.74,0006.72
2023-01-23 03:08:00,,0821.7,4.98,0.00,24.2,22.8,00.0,33.1,26.1,10.2,0001.7,0019.80,0007.74,0006.73
2023-01-23 03:09:00,,0821.6,5.03,0.00,24.2,22.8,00.0,33.1,26.1,10.2,0002.4,0019.98,0007.78,0006.76
2023-01-23 03:10:00,,0821.7,4.99,0.00,24.2,22.8,00.0,33.0,26.1,10.2,0002.7,0019.92,0007.80,0006.78
2023-01-23 03:11:00,,0821.7,4.97,0.00,24.2,22.8,00.0,33.0,26.1,10.1,0002.8,0020.44,0007.84,0006.80
2023-01-23 03:12:00,,0821.7,4.98,0.00,24.2,22.8,00.0,33.0,26.1,10.1,0002.9,0020.28,0007.88,0006.82
2023-01-23 03:13:00,,0821.7,5.00,0.00,24.2,22.7,00.0,33.0,26.1,10.1,0002.3,0019.67,0007.88,0006.84
2023-01-23 03:14:00,,0821.7,5.01,0.00,24.2,22.7,00.0,33.0,26.1,10.1,0000.8,0018.83,0007.95,0006.88
2023-01-23 03:15:00,,0821.7,5.00,0.00,24.2,22.7,00.0,33.0,26.0,10.1,0001.9,0018.18,0007.94,0006.93
2023-01-23 03:16:00,,0821.8,5.00,0.00,24.2,22.7,00.0,33.0,26.0,10.1,0002.6,0017.92,0007.96,0006.97
2023-01-23 03:17:00,,0821.7,5.00,0.00,24.2,22.7,00.0,33.0,26.0,10.2,0002.2,0018.80,0008.02,0007.00
2023-01-23 03:18:00,,0821.8,5.01,0.00,24.2,22.7,00.0,33.0,26.0,10.3,0002.2,0020.21,0008.06,0007.03
2023-01-23 03:19:00,,0821.7,5.00,0.00,24.2,22.7,00.0,33.0,26.0,10.3,0002.7,0020.47,0008.14,0007.08
2023-01-23 03:20:00,,0821.7,4.99,0.00,24.2,22.7,00.0,33.0,26.0,10.3,0002.8,0019.56,0008.20,0007.11
2023-01-23 03:21:00,,0821.7,5.00,0.00,24.2,22.7,00.0,33.0,26.0,10.3,0002.2,0020.05,0008.27,0007.14
2023-01-23 03:22:00,,0821.7,5.00,0.00,24.1,22.6,00.0,32.9,26.0,10.2,0002.1,0021.19,0008.30,0007.17
2023-01-23 03:23:00,,0821.7,5.00,0.00,24.1,22.6,00.0,32.9,26.0,10.3,0001.7,0022.63,0008.36,0007.21
2023-01-23 03:24:00,,0821.7,5.00,0.00,24.1,22.6,00.0,32.9,26.0,10.3,0002.1,0023.72,0008.41,0007.27
2023-01-23 03:25:00,,0821.8,5.02,0.00,24.1,22.6,00.0,32.9,25.9,10.3,0003.4,0023.89,0008.45,0007.29
2023-01-23 03:26:00,,0821.8,5.00,0.00,24.1,22.6,00.0,32.9,25.9,10.2,0003.2,0023.94,0008.57,0007.32
2023-01-23 03:27:00,,0821.8,5.00,0.00,24.1,22.6,00.0,32.9,25.9,10.2,0002.2,0023.41,0008.66,0007.35
2023-01-23 03:28:00,,0821.8,5.00,0.00,24.1,22.6,00.0,32.9,25.9,10.2,0003.1,0022.46,0008.69,0007.39
2023-01-23 03:29:00,,0821.8,4.99,0.00,24.1,22.6,00.0,32.9,25.9,10.2,0003.4,0021.09,0008.72,0007.44
2023-01-23 03:30:00,,0821.8,5.00,0.00,24.1,22.6,00.0,32.9,25.9,10.1,0002.3,0020.96,0008.72,0007.45
2023-01-23 03:31:00,,0821.8,4.98,0.00,24.1,22.6,00.0,32.9,25.9,10.1,0001.3,0021.54,0008.69,0007.47
2023-01-23 03:32:00,,0821.8,4.98,0.00,24.1,22.6,00.0,32.9,25.9,10.1,0001.5,0020.84,0008.66,0007.50
2023-01-23 03:33:00,,0821.8,4.98,0.00,24.1,22.6,00.0,32.9,25.9,10.1,0001.5,0019.82,0008.65,0007.52
2023-01-23 03:34:00,,0821.8,4.98,0.00,24.1,22.6,00.0,32.9,25.9,10.2,0002.2,0019.10,0008.62,0007.53
2023-01-23 03:35:00,,0821.8,5.00,0.00,24.1,22.6,00.0,32.9,25.9,10.2,0002.1,0019.11,0008.63,0007.53
2023-01-23 03:36:00,,0821.8,4.99,0.00,24.1,22.6,00.0,32.9,25.9,10.2,0001.5,0018.43,0008.60,0007.55
2023-01-23 03:37:00,,0821.9,5.01,0.00,24.1,22.6,00.0,32.9,25.9,10.2,0001.5,0018.12,0008.57,0007.57
2023-01-23 03:38:00,,0821.9,5.01,0.00,24.0,22.6,00.0,32.9,25.9,10.2,0000.8,0018.49,0008.51,0007.57
2023-01-23 03:39:00,,0821.9,4.99,0.00,24.0,22.6,00.0,32.8,25.9,10.1,0000.2,0019.17,0008.55,0007.58
2023-01-23 03:40:00,,0822.0,5.01,0.00,24.0,22.6,00.0,32.8,25.9,10.1,0000.2,0020.92,0008.62,0007.57
2023-01-23 03:41:00,,0822.2,4.99,0.00,24.0,22.5,00.0,32.8,25.9,10.1,0000.0,0021.48,0008.62,0007.57
2023-01-23 03:42:00,,0821.9,5.00,0.00,24.0,22.5,00.0,32.8,25.9,10.1,0000.0,0022.40,0008.63,0007.56
2023-01-23 03:43:00,,0821.9,4.99,0.00,24.0,22.5,00.0,32.8,25.8,10.1,0001.9,0022.58,0008.66,0007.56
2023-01-23 03:44:00,,0822.0,4.99,0.00,24.0,22.5,00.0,32.8,25.8,10.1,0002.9,0022.25,0008.69,0007.57
2023-01-23 03:45:00,,0822.0,4.99,0.00,24.0,22.5,00.0,32.8,25.8,10.1,0002.7,0021.20,0008.70,0007.59
2023-01-23 03:46:00,,0822.0,5.01,0.00,24.0,22.5,00.0,32.8,25.8,10.2,0002.9,0020.35,0008.70,0007.61
2023-01-23 03:47:00,,0822.0,5.02,0.00,24.0,22.5,00.0,32.8,25.8,10.2,0003.4,0021.04,0008.75,0007.64
2023-01-23 03:48:00,,0822.1,5.02,0.00,24.0,22.5,00.0,32.8,25.8,10.2,0002.6,0020.66,0008.77,0007.65
2023-01-23 03:49:00,,0822.1,4.99,0.00,24.0,22.5,00.0,32.8,25.7,10.2,0002.6,0020.27,0008.79,0007.68
2023-01-23 03:50:00,,0822.1,5.00,0.00,24.0,22.5,00.0,32.8,25.7,10.2,0002.6,0019.63,0008.78,0007.71
2023-01-23 03:51:00,,0822.1,4.99,0.00,24.0,22.5,00.0,32.8,25.7,10.2,0002.3,0017.67,0008.75,0007.75
2023-01-23 03:52:00,,0822.1,5.00,0.00,23.9,22.5,00.0,32.8,25.7,10.2,0001.7,0016.88,0008.74,0007.78
2023-01-23 03:53:00,,0822.1,5.00,0.00,23.9,22.5,00.0,32.8,25.7,10.2,0000.7,0015.47,0008.73,0007.81
2023-01-23 03:54:00,,0822.1,5.01,0.00,23.9,22.5,00.0,32.7,25.7,10.2,0001.0,0015.02,0008.68,0007.83
2023-01-23 03:55:00,,0822.2,5.00,0.00,23.9,22.5,00.0,32.7,25.7,10.2,0001.1,0014.85,0008.65,0007.83
2023-01-23 03:56:00,,0822.2,5.01,0.00,23.9,22.5,00.0,32.7,25.7,10.2,0001.4,0015.28,0008.66,0007.85
2023-01-23 03:57:00,,0822.2,5.00,0.00,23.9,22.5,00.0,32.7,25.7,10.2,0001.5,0015.83,0008.68,0007.88
2023-01-23 03:58:00,,0822.2,5.00,0.00,23.9,22.5,00.0,32.7,25.7,10.2,0001.1,0015.46,0008.69,0007.89
2023-01-23 03:59:00,,0822.2,4.99,0.00,23.9,22.4,00.0,32.7,25.7,10.2,0001.6,0015.63,0008.73,0007.93
